TimeCDT,TemperatureF,Dew PointF,Humidity,Sea Level PressureIn,VisibilityMPH,Wind Direction,Wind SpeedMPH,Gust SpeedMPH,PrecipitationIn,Events,Conditions,WindDirDegrees,DateUTC
12:52 AM,28.0,21.9,78,30.43,10.0,East,4.6,-,N/A,,Clear,100,2012-10-27 05:52:00
1:52 AM,24.1,19.0,81,30.41,10.0,SSW,4.6,-,N/A,,Clear,200,2012-10-27 06:52:00
2:52 AM,24.1,19.0,81,30.40,10.0,SSW,4.6,-,N/A,,Clear,200,2012-10-27 07:52:00
3:52 AM,25.0,19.9,81,30.38,10.0,SSW,4.6,-,N/A,,Clear,200,2012-10-27 08:52:00
4:52 AM,25.0,19.0,78,30.36,10.0,SSE,6.9,-,N/A,,Clear,160,2012-10-27 09:52:00
5:52 AM,25.0,19.9,81,30.37,10.0,SSE,8.1,-,N/A,,Clear,150,2012-10-27 10:52:00
6:52 AM,26.1,21.0,81,30.38,10.0,SSE,8.1,-,N/A,,Clear,160,2012-10-27 11:52:00
7:52 AM,24.1,19.0,81,30.39,10.0,SSW,5.8,-,N/A,,Clear,210,2012-10-27 12:52:00
8:52 AM,28.0,21.9,78,30.40,9.0,South,8.1,-,N/A,,Partly Cloudy,170,2012-10-27 13:52:00
9:52 AM,33.8,24.8,70,30.33,10.0,South,11.5,-,N/A,,Clear,170,2012-10-27 14:52:00
10:52 AM,36.0,24.1,62,30.37,10.0,South,13.8,-,N/A,,Overcast,180,2012-10-27 15:52:00
11:52 AM,41.0,24.1,51,30.33,10.0,South,13.8,-,N/A,,Clear,170,2012-10-27 16:52:00
12:52 PM,44.1,23.0,43,30.29,10.0,South,12.7,20.7,N/A,,Clear,180,2012-10-27 17:52:00
1:52 PM,46.9,23.0,39,30.25,10.0,South,13.8,20.7,N/A,,Clear,170,2012-10-27 18:52:00
2:52 PM,48.0,21.9,36,30.22,10.0,South,10.4,-,N/A,,Clear,190,2012-10-27 19:52:00
3:52 PM,48.9,21.9,35,30.21,10.0,SSW,12.7,-,N/A,,Clear,200,2012-10-27 20:52:00
4:52 PM,48.9,21.9,35,30.19,10.0,SSW,11.5,-,N/A,,Clear,200,2012-10-27 21:52:00
5:52 PM,48.0,21.9,36,30.19,10.0,South,13.8,-,N/A,,Clear,170,2012-10-27 22:52:00
6:52 PM,42.1,21.9,45,30.20,10.0,SSE,8.1,-,N/A,,Clear,150,2012-10-27 23:52:00
7:52 PM,35.1,21.0,57,30.23,10.0,SE,8.1,-,N/A,,Clear,140,2012-10-28 00:52:00
8:52 PM,36.0,19.9,52,30.24,10.0,SE,11.5,-,N/A,,Clear,140,2012-10-28 01:52:00
9:52 PM,36.0,21.0,55,30.23,10.0,SSE,10.4,-,N/A,,Clear,160,2012-10-28 02:52:00
10:52 PM,35.1,19.9,54,30.25,10.0,South,10.4,-,N/A,,Clear,170,2012-10-28 03:52:00
11:52 PM,34.0,21.0,59,30.25,10.0,South,9.2,-,N/A,,Clear,170,2012-10-28 04:52:00